Location: Unspecified
(0.0000°N, 0.0000°E)
Time: 07:15:38
(UTC+00:00)

Tiangong - Pass Details

Date: 28 July 2021
Orbit: 373 x 386 km, 41.5° (Epoch: 01 August)

Event Time Altitude Azimuth Distance (km) Brightness Sun altitude
Exits shadow 04:45:17 11° 163° (SSE) 1,321 3.7 -19.2°
Maximum altitude 04:46:34 13° 137° (SE) 1,205 3.8 -18.9°
Drops below altitude 10° 04:48:11 10° 105° (ESE) 1,387 4.7 -18.5°
Sets 04:51:02 0° 77° (ENE) 2,240 6.6 -17.8°
